#timestamp,LO_Frequency,Hit,StdDev 
1581084015.6,286046975.7,N
1581084035.5,286046972.2,N
1581084055.3,286046970.2,Y
1581084075.1,286046978.6,P
1581084095.9,286046981.1,N
1581084115.7,286046976.4,P
1581084135.6,286046976.3,Y
1581084155.4,286046995.9,P
1581084175.2,286046994.3,N
1581084195.1,286046984.6,N
1581084196.0,286046984.6,N
1581084215.8,286046979.3,Y
1581084235.7,286046987.1,P
1581084255.5,286046988.5,P
1581084275.3,286046984.3,P
1581084295.2,286046983.5,Y
1581084315.0,286046995.2,P
1581084315.9,286046995.2,N
1581084335.8,286047001.0,N
1581084355.6,286047007.6,N
1581084375.4,286047018.6,N
1581084395.3,286047020.6,N
1581084415.1,286047024.0,N
1581084435.8,286047032.6,N
1581084455.7,286047042.7,N
1581084475.5,286047047.7,N
1581084495.4,286047056.9,N
1581084515.2,286047054.1,N
1581084535.0,286047060.4,N
1581084535.9,286047060.4,N
1581084555.8,286047057.3,N
1581084575.6,286047061.9,N
1581084595.4,286047057.7,N
1581084615.3,286047054.7,N
1581084635.1,286047055.9,N
1581084655.9,286047061.0,N
1581084675.7,286047062.3,N
1581084695.5,286047065.7,N
1581084715.4,286047066.0,N
1581084735.2,286047062.9,N
1581084755.1,286047060.8,N
1581084756.0,286047060.8,N
1581084775.8,286047063.3,N
1581084795.6,286047065.5,N
1581084815.5,286047067.8,N
1581084835.3,286047065.4,N
1581084855.1,286047062.4,N
1581084875.9,286047064.7,Y
1581084895.7,286047016.5,P
1581084915.6,286047016.7,N
1581084935.4,286047018.7,N
1581084955.2,286047016.9,N
1581084975.1,286047015.2,N
1581084976.0,286047015.2,N
1581084995.8,286047018.4,N
1581085015.7,286047017.3,N
1581085035.5,286047019.1,N
1581085055.3,286047019.4,N
1581085075.2,286047018.2,N
1581085095.0,286047021.1,N
1581085095.9,286047021.1,N
1581085115.7,286047019.8,N
1581085135.6,286047019.5,N
1581085155.4,286047019.2,N
1581085175.3,286047020.9,N
1581085195.1,286047026.4,Y
1581085215.8,286047003.1,P
1581085235.7,286047005.9,N
1581085255.5,286047001.5,N
1581085275.4,286047003.4,N
1581085295.2,286047008.9,N
1581085315.0,286047011.1,N
1581085315.9,286047011.1,N
1581085335.8,286047008.5,N
1581085355.6,286047009.1,N
1581085375.4,286047011.8,N
1581085395.3,286047011.1,N
1581085415.1,286047011.4,N
1581085435.9,286047013.7,N
1581085455.7,286047015.3,Y
1581085475.5,286047008.0,P
1581085495.4,286047007.7,P
1581085515.2,286047009.0,P
1581085535.1,286047008.1,Y
1581085536.0,286047008.1,P
1581085555.8,286047004.1,P
1581085575.6,286047003.0,N
1581085595.5,286046998.6,N
1581085615.3,286046999.6,N
1581085635.2,286047000.3,N
1581085655.9,286047005.6,N
1581085675.7,286047000.2,N
1581085695.6,286047004.1,N
1581085715.4,286047004.0,N
1581085735.2,286047004.1,N
1581085755.1,286047001.6,N
1581085756.0,286047001.6,N
1581085775.8,286047008.2,N
1581085795.7,286047005.5,N
1581085815.5,286047003.1,N
1581085835.3,286047005.9,N
1581085855.2,286046997.2,N
1581085875.0,286046990.4,Y
1581085875.9,286046990.4,P
1581085895.8,286046982.4,N
1581085915.6,286046984.2,N
1581085935.4,286046989.8,N
1581085955.3,286046990.4,N
1581085975.1,286046994.8,N
1581085995.8,286046987.9,N
1581086015.7,286046979.4,Y
1581086035.5,286046982.1,P
1581086055.4,286046983.1,P
1581086075.2,286046980.0,P
1581086095.0,286046977.4,Y
1581086095.9,286046977.4,P
1581086115.8,286047001.9,N
1581086135.6,286047003.5,N
1581086155.5,286047008.2,N
1581086175.3,286047012.0,N
1581086195.1,286047006.5,N
1581086215.9,286046998.0,N
1581086235.7,286046987.7,N
1581086255.5,286046991.2,N
1581086275.4,286046998.0,N
1581086295.2,286046997.5,N
1581086315.1,286046998.4,N
1581086316.0,286046998.4,N
1581086335.8,286047002.3,N
1581086355.6,286046999.1,N
1581086375.5,286046997.9,N
1581086395.3,286046992.4,N
1581086415.1,286046990.9,N
1581086435.9,286046982.3,N
1581086455.7,286046974.4,N
1581086475.6,286046971.0,Y
1581086495.4,286046980.1,P
1581086515.2,286046980.1,N
1581086535.1,286046984.0,N
1581086536.0,286046984.0,N
1581086555.8,286046984.0,N
1581086575.6,286046988.3,N
1581086595.5,286046998.0,N
1581086615.3,286047001.3,N
1581086635.2,286047002.5,N
1581086655.9,286046999.5,N
1581086675.7,286046998.7,N
1581086695.6,286047004.4,N
1581086715.4,286046998.5,N
1581086735.3,286046989.2,N
1581086755.1,286046985.7,N
1581086756.0,286046985.7,N
1581086775.8,286046991.4,N
1581086795.7,286046996.9,N
1581086815.5,286047002.1,N
1581086835.3,286047007.5,N
1581086855.2,286047002.4,N
1581086875.0,286047003.6,N
1581086875.9,286047003.6,N
1581086895.8,286047009.1,N
1581086915.6,286047009.7,N
1581086935.4,286047009.7,N
1581086955.3,286047012.5,N
1581086975.1,286047022.8,N
1581086995.9,286047029.0,N
1581087015.7,286047035.9,Y
1581087035.5,286047041.8,P
1581087055.4,286047041.4,N
1581087075.2,286047036.2,N
1581087095.0,286047042.7,N
1581087095.9,286047042.7,N
1581087115.8,286047047.5,N
1581087135.6,286047046.6,Y
1581087155.5,286047006.4,P
1581087175.3,286047009.4,N
1581087195.1,286047014.6,N
1581087215.9,286047016.2,N
1581087235.7,286047019.0,N
1581087255.5,286047026.5,N
1581087275.4,286047029.9,Y
1581087295.2,286047014.1,P
1581087315.1,286047020.1,P
1581087316.0,286047020.1,P
1581087335.8,286047014.3,Y
1581087355.6,286046998.3,P
1581087375.5,286047004.1,N
1581087395.3,286047002.3,N
1581087415.2,286046998.3,N
1581087435.9,286046997.8,N
1581087455.7,286046996.5,N
1581087475.6,286047001.0,N
1581087495.4,286047001.0,N
1581087515.2,286046997.1,N
1581087535.1,286046997.6,N
1581087536.0,286046997.6,N
1581087555.8,286046998.8,N
1581087575.7,286046998.5,N
1581087595.5,286046997.0,N
